Location: Athens
(33.9609°N, 83.3779°W)
Time: 05:19:45
(UTC+00:00)

Daily predictions for brighter satellites

Satellite Brightness Start Highest point End
(mag) Time Altitude Azimuth Time Altitude Azimuth Time Altitude Azimuth
Cosmos 1295 Rocket 4.5 00:16:06 10° N 00:22:16 79° E 00:28:20 10° S
Cosmos 1656 Rocket 3.6 00:17:30 10° S 00:23:02 69° ESE 00:28:31 10° NNE
Cosmos 1452 Rocket 3.6 00:17:54 10° SSW 00:23:10 87° WNW 00:28:28 10° NNE
Cosmos 2184 Rocket 4.1 00:18:01 10° N 00:24:15 87° W 00:30:30 10° S
Cosmos 1346 Rocket 4.0 00:22:27 10° SE 00:25:18 20° E 00:28:10 10° NE
Cosmos 1300 2.9 00:21:49 10° SSW 00:25:23 70° W 00:28:57 10° N
Cosmos 2154 Rocket 4.0 00:19:55 10° N 00:26:08 77° E 00:32:19 10° S
Cosmos 1110 Rocket 4.1 00:21:16 10° SSW 00:26:24 86° WNW 00:31:37 10° NNE
Meteor 1-24 Rocket 4.0 00:21:39 10° N 00:27:42 88° W 00:33:43 10° S
SJ-6B 3.7 00:24:16 10° SE 00:27:42 30° ENE 00:31:10 10° NNE
Cosmos 1703 3.1 00:24:09 10° N 00:27:56 84° E 00:31:40 10° S
OAO 3 Rocket 3.3 00:25:18 10° W 00:30:10 82° N 00:35:05 10° E
NOSS 2-2 (D) 3.5 00:27:48 10° SW 00:31:24 60° WNW 00:34:30 10° NNE
DELTA 2 R/B (1) 3.9 00:28:21 10° WNW 00:33:55 63° NNE 00:39:27 10° E
NOSS 2-3 (E) 4.5 00:31:22 10° SW 00:34:53 44° WNW 00:38:31 10° NNE
Cosmos 1408 3.2 00:32:20 10° NNW 00:35:21 48° W 00:38:18 10° S
Nadezhda 1 Rocket 4.2 00:30:04 10° S 00:36:07 77° W 00:42:12 10° N
Cosmos 1378 Rocket 3.4 00:33:48 10° N 00:38:06 71° E 00:42:21 10° SSE
Landsat 7 3.8 00:34:02 10° SSE 00:38:44 86° ENE 00:43:27 10° N
Cosmos 2221 Rocket 3.7 00:35:36 10° N 00:40:06 60° E 00:44:34 10° SSE
ATLAS 5 CENTAUR R/B 2.5 00:38:47 10° SSE 00:40:42 15° ESE 00:42:39 10° ENE
BREEZE-M DEB (TANK) 4.1 00:38:30 10° WNW 00:42:12 53° SW 00:48:50 10° SE
Cosmos 1908 Rocket 3.5 00:39:14 10° S 00:43:28 62° E 00:47:45 10° NNE
Cosmos 1741 Rocket 4.2 00:38:41 10° N 00:43:48 53° ENE 00:48:55 10° SSE
Cosmos 1892 3.3 00:40:36 10° NNE 00:43:49 31° E 00:46:59 10° SE
Cosmos 1242 Rocket 2.7 00:42:01 10° NNW 00:44:57 57° W 00:47:52 10° S
USA 186 3.2 00:43:22 12° ESE 00:45:18 20° ENE 00:47:36 10° NNE
Milstar 3 4.3 00:38:55 10° SW 00:47:12 47° SSE 01:02:12 10° E
CZ-4 R/B 1.6 00:43:37 10° SSE 00:47:26 47° ENE 00:51:12 10° N
Cosmos 968 Rocket 4.1 00:42:57 10° N 00:47:41 37° ENE 00:52:17 11° SE
Cosmos 1455 2.4 00:49:14 10° SSE 00:52:36 41° E 00:55:59 10° NNE
Meteor 1-16 Rocket 4.3 00:47:42 10° S 00:53:25 88° W 00:58:59 10° N
COSMOS 2406 4.3 00:50:48 10° NNW 00:56:17 47° WSW 01:01:44 10° S
CZ-4B R/B 3.2 00:57:21 10° S 01:01:10 62° WSW 01:04:49 10° NNW
Cosmos 1953 2.1 00:57:27 10° S 01:01:15 90° S 01:05:05 10° N
Cosmos 1300 Rocket 4.0 00:59:19 10° SSE 01:03:20 38° E 01:07:23 10° NNE
Cosmos 1850 Rocket 4.0 00:58:31 10° NNW 01:03:50 89° ENE 01:09:04 10° SSE
Cosmos 962 Rocket 4.5 00:59:29 10° N 01:05:49 78° E 01:12:09 10° S
CSL-04 Rocket 4.2 01:03:23 14° SE 01:07:50 42° ENE 01:12:58 10° N
Cosmos 2181 Rocket 4.0 01:02:59 10° S 01:08:58 60° E 01:15:04 10° NNE
ADEOS Rocket 4.2 01:04:22 10° SSW 01:09:37 39° W 01:14:43 10° NNW
OAO 1 Rocket 4.4 01:06:17 10° WSW 01:11:38 80° SSE 01:15:33 18° E
MOS 1-B 4.5 01:06:32 11° SSE 01:12:02 55° ENE 01:17:41 10° N
NOSS 3-1 (A) 3.7 01:09:37 10° SSE 01:13:28 25° ESE 01:17:40 10° NE
Cosmos 2369 Rocket 3.1 01:09:23 10° SW 01:14:55 53° WNW 01:20:28 10° N
SJ 16-02 2.1 01:12:01 10° N 01:15:57 33° ENE 01:17:18 27° ESE
DELTA 2 DEB (DPAF) 3.9 01:12:03 10° NNE 01:16:18 90° SE 01:20:31 10° SSW
Cosmos 1992 Rocket 4.0 01:14:09 10° S 01:19:11 53° ESE 01:24:15 10° NNE
SL-8 Rocket 3.9 01:13:58 10° N 01:20:09 74° E 01:26:17 10° SSE
CZ-4C R/B 4.1 01:19:24 10° NE 01:21:31 26° ENE 01:21:31 26° ENE
SPOT 1/Viking Rocket 3.6 01:17:35 10° S 01:22:48 82° WSW 01:28:02 10° NNW
Atlas Centaur 2 3.5 01:21:14 10° S 01:23:03 14° SSE 01:23:03 14° SSE
Cosmos 2098 Rocket 3.6 01:18:30 10° SSE 01:24:04 52° E 01:28:42 10° NNE
CZ-4B R/B 3.3 01:22:28 10° SSE 01:28:08 87° WSW 01:33:48 10° NNW
Okean-O 3.6 01:28:34 28° E 01:28:54 28° ENE 01:32:41 10° NNE
PSLV R/B 3.5 01:28:18 38° SE 01:29:30 65° ENE 01:33:10 10° N
Cosmos 2341 Rocket 4.1 01:25:04 10° N 01:31:21 82° W 01:37:34 10° S
Cosmos 1825 2.5 01:28:34 10° NNW 01:31:58 57° W 01:34:23 17° S
USA 234 3.2 01:28:22 25° SE 01:32:25 77° NE 01:38:57 10° NW
NOSS 3-1 (C) 3.1 01:32:03 10° SW 01:36:40 71° WNW 01:42:02 10° NNE
Hubble Space Telescope 1.4 01:38:00 10° WSW 01:41:39 37° S 01:41:39 37° S
Cosmos 2366 rocket 4.2 01:44:37 10° N 01:50:57 71° W 01:56:57 11° S
Okean O Rocket 1.7 01:49:28 34° S 01:51:15 71° WSW 01:55:35 10° NNW
Cosmos 1025 Rocket 3.9 01:48:18 10° NNW 01:52:30 48° W 01:55:30 18° SSW
Nadezhda 3 Rocket 3.9 01:49:59 31° SSE 01:52:50 60° E 01:58:52 10° NNE
Resurs 01 Rocket 2.0 01:55:01 31° SSW 01:56:56 59° W 02:01:18 10° NNW
ATLAS 3B R/B 2.6 01:51:01 10° SSW 01:57:51 80° ESE 02:05:15 10° NNE
Cosmos 2218 Rocket 4.4 01:51:57 10° NNW 01:58:16 64° W 02:03:55 13° S
CARTOSAT-1 3.9 01:58:16 40° SSW 01:59:35 62° W 02:03:49 10° NNW
USA 281 3.1 01:59:34 41° SE 02:02:07 79° ENE 02:08:42 10° NNW
Cosmos 1975 Rocket 3.1 02:00:22 10° NNW 02:04:40 71° W 02:05:11 62° SW
Cosmos 1821 Rocket 3.8 02:00:25 10° N 02:06:36 83° E 02:08:32 47° SSE
OAO 3 Rocket 3.1 02:08:44 10° W 02:13:29 84° WNW 02:13:29 84° WNW
SL-24 R/B 4.4 02:20:20 72° NNE 02:20:20 72° NNE 02:25:08 10° N
DELTA 2 R/B (1) 4.0 02:14:54 10° WNW 02:20:18 49° SSW 02:20:22 49° SSW
SPOT 5 3.2 02:24:44 64° NNE 02:24:44 64° NNE 02:29:27 10° N
ATLAS 5 CENTAUR R/B 3.4 02:21:41 10° WSW 02:24:19 22° NW 02:27:05 10° N
ERS-1 Rocket 4.1 02:36:15 35° NNE 02:36:15 35° NNE 02:39:19 10° N
Cosmos 1339 Rocket 4.4 02:38:58 79° NNE 02:38:58 79° NNE 02:44:43 10° N
Cosmos 1934 Rocket 4.3 02:46:30 10° N 02:51:27 60° N 02:51:27 60° N
SJ 16-02 3.8 02:51:23 10° WNW 02:53:57 16° W 02:54:07 16° W
Cosmos 2297 Rocket 4.1 02:57:16 10° N 02:59:36 20° NNE 02:59:36 20° NNE
Terra 3.8 03:09:27 25° NNW 03:09:27 25° NNW 03:11:24 10° NNW
CZ-4C R/B 4.2 04:32:07 10° NNW 04:36:23 36° N 04:36:23 36° N
CENTAUR R/B 4.2 05:10:07 10° NNW 05:15:26 41° N 05:15:26 41° N
Cosmos 2219 Rocket 4.3 07:14:08 21° NNE 07:14:08 21° NNE 07:15:54 10° NNE
ADEOS II 3.9 07:34:23 10° NNE 07:36:44 27° NNE 07:36:44 27° NNE
SL-16 R/B 3.2 07:51:52 49° ENE 07:51:58 49° ENE 07:57:55 10° N
CZ-2D R/B 3.9 07:47:14 10° N 07:49:32 26° N 07:49:32 26° N
Meteor 1-27 Rocket 4.5 08:04:15 50° ENE 08:04:15 50° ENE 08:09:04 10° NNE
COSMOS 2428 3.9 08:10:38 33° NNW 08:10:38 33° NNW 08:14:03 10° N
CZ-2C R/B 4.3 08:17:17 25° NNW 08:17:17 25° NNW 08:19:27 10° NNW
Cosmos 2237 Rocket 2.6 08:16:42 59° NE 08:16:42 59° NE 08:21:27 10° NNE
Cosmos 1980 4.1 08:18:04 61° NE 08:18:04 61° NE 08:22:44 10° NNE
ATLAS 2AS CENTAUR R/B 3.8 08:19:52 32° SSE 08:22:11 40° ESE 08:28:53 10° NE
Cosmos 1867 4.3 08:18:30 10° NNW 08:23:51 51° ENE 08:29:07 10° SE
Meteor 1-11 Rocket 4.0 08:18:58 10° N 08:23:44 63° NNE 08:23:44 63° NNE
CZ-2C R/B 4.3 08:20:35 10° N 08:23:31 32° NNW 08:23:31 32° NNW
ALOS 3.6 08:21:16 10° N 08:23:56 35° N 08:23:56 35° N
Resurs 1-4 Rocket 4.1 08:28:24 10° NNW 08:30:10 17° NNW 08:30:10 17° NNW
Meteor 2-9 Rocket 4.3 08:29:37 10° N 08:35:00 67° E 08:35:52 57° SE
Cosmos 2195 Rocket 4.3 08:36:50 78° W 08:36:57 79° W 08:43:16 10° N
NOSS 0 Rocket 4.4 08:48:14 42° WNW 08:48:14 42° WNW 08:53:49 10° N
H-2A R/B 4.1 08:46:25 38° SSW 08:48:00 40° S 09:30:05 10° SE
H-2A R/B 4.1 08:46:25 38° SSW 08:48:01 40° S 09:30:05 10° SE
Cosmos 1680 Rocket 3.4 08:47:51 81° SSE 08:48:05 84° ESE 08:53:25 10° NNE
Cosmos 192 4.4 08:47:52 10° NNW 08:52:46 77° ENE 08:54:23 43° SSE
Cosmos 2278 Rocket 2.3 08:48:23 10° NNW 08:54:05 75° ENE 08:59:43 10° SSE
BREEZE-M DEB (TANK) 4.2 09:00:46 45° WNW 09:01:46 53° NNW 09:13:39 10° NE
Meteor 2-10 4.1 08:59:38 10° NNW 09:05:16 72° W 09:07:23 40° SSW
Cosmos 1461 3.4 09:01:32 10° NNW 09:05:16 51° ENE 09:08:58 10° SE
SL-16 R/B 2.8 09:03:20 25° S 09:06:23 53° ESE 09:11:52 10° NNE
Cosmos 1151 Rocket 4.0 09:07:55 33° NW 09:07:55 33° NW 09:10:45 10° N
METEOR-M 4.1 09:05:21 10° N 09:10:39 66° WNW 09:11:50 51° SW
Cosmos 1553 Rocket 4.4 09:06:28 10° N 09:12:39 62° E 09:18:43 10° SSE
USA 308 2.8 09:12:46 61° SE 09:12:46 61° SE 09:16:34 10° NE
CZ-2C R/B 2.4 09:07:31 10° NNE 09:12:43 86° WNW 09:14:38 40° SSW
PAYLOAD A 3.8 09:11:18 10° NNE 09:16:11 88° E 09:18:05 37° SSW
Cosmos 921 Rocket 2.8 09:16:42 62° SSW 09:17:23 86° W 09:21:42 10° NNE
ADEOS II 4.1 09:16:07 10° NW 09:17:38 13° NW 09:17:38 13° NW
Cosmos 1626 2.3 09:18:46 50° SE 09:19:16 57° E 09:22:30 10° NNE
Cosmos 1340 3.3 09:18:04 10° N 09:21:25 49° E 09:24:45 10° SSE
Cosmos 1975 2.7 09:20:39 10° N 09:24:30 81° E 09:27:22 17° S
Intercosmos 25 Rocket 3.7 09:22:17 10° N 09:26:05 85° E 09:31:58 10° S
ASTRO E2 4.1 09:27:37 21° SSE 09:27:44 21° SSE 09:30:29 10° ESE
Meteor 2-12 Rocket 4.3 09:23:44 16° S 09:28:37 84° W 09:34:41 10° N
Cosmos 1375 Rocket 4.5 09:28:47 27° SSW 09:32:32 82° WNW 09:39:05 10° NNE
Envisat 3.5 09:28:50 10° N 09:33:31 39° WNW 09:34:51 33° WSW
Cosmos 1484 Rocket 4.0 09:30:45 10° NNE 09:34:05 36° E 09:37:24 10° SSE
SL-16 R/B 3.8 09:36:56 20° W 09:36:56 20° W 09:40:19 10° NW
BREEZE-M DEB (TANK) 4.1 09:34:05 22° WNW 09:36:11 27° NW 09:38:59 10° NNE
NOSS 2-2 (E) 4.4 09:32:21 10° NW 09:37:39 67° WSW 09:45:12 10° SSE
Meteor 1-18 Rocket 4.3 09:39:20 22° SSW 09:42:50 55° W 09:48:24 10° N
Cosmos 1666 Rocket 3.6 09:41:40 10° NNW 09:45:59 53° W 09:50:17 10° S
Cosmos 1371 Rocket 4.0 09:42:09 10° NNW 09:47:25 89° WSW 09:52:42 10° SSE
Cosmos 1066 Rocket 4.0 09:42:30 10° S 09:47:50 79° W 09:53:16 10° N
Meteor 2-4 Rocket 4.2 09:48:37 23° SW 09:51:09 36° WNW 09:56:09 10° N
Thor Agena Rocket 4.1 09:46:39 10° N 09:51:14 36° WNW 09:53:50 22° WSW
NOSS 2-2 (D) 4.3 09:47:01 10° NW 09:52:13 69° WSW 09:59:39 10° SSE
Cosmos 1943 Rocket 2.2 09:47:35 10° NNW 09:53:09 60° WSW 09:58:41 10° S
YAOGAN 6 3.7 09:50:34 10° NNW 09:53:02 22° WNW 09:53:02 22° WNW
Cosmos 1842 3.5 09:51:34 10° S 09:55:14 64° E 09:58:57 10° NNE
H-2A R/B 2.3 09:50:17 10° NNE 09:55:18 70° ESE 10:00:26 10° S
BlueWalker 3 3.2 09:54:00 10° NNW 09:57:39 42° NE 10:01:16 10° ESE
USA 290 4.3 09:54:55 10° N 09:57:41 30° ENE 10:00:25 10° SE
Cosmos 2237 Rocket 4.0 09:58:31 13° WNW 10:00:23 15° NW 10:03:29 10° NNW
DMSP B5D2-2 4.2 10:02:47 10° S 10:07:47 48° W 10:12:49 10° NNW
Cosmos 2369 Rocket 4.0 10:07:22 10° N 10:12:29 36° ENE 10:17:34 10° SE
ATLAS 2AS CENTAUR R/B 3.5 10:07:19 15° WSW 10:13:04 40° NW 10:19:49 10° NNE
Cosmos 1707 2.6 10:12:21 10° S 10:15:59 89° E 10:19:40 10° N
Orbus 7S? 3.4 10:15:18 10° SSW 10:19:16 57° SE 10:21:56 10° NE
Chandra Rocket (1) 3.0 10:18:55 13° WSW 10:21:45 46° S 10:30:16 10° E
Cosmos 1470 3.1 10:19:18 10° N 10:23:06 67° E 10:26:51 10° SSE
Cosmos 1633 Rocket 4.2 10:20:25 10° NW 10:23:49 23° W 10:27:13 10° SW
S3M 4.0 10:19:17 10° NNW 10:25:22 62° W 10:31:30 10° S
BREEZE-M DEB (TANK) 4.5 10:10:15 10° NW 10:25:56 60° NNE 10:30:13 10° ESE
Cosmos 1048 Rocket 4.4 10:21:23 10° SW 10:26:30 46° WNW 10:31:34 10° N
Cosmos 1943 3.4 10:21:52 10° SSW 10:27:32 78° ESE 10:33:15 10° NNE
Cosmos 2266 Rocket 4.4 10:23:06 10° SSW 10:28:49 41° W 10:34:29 10° N
Cosmos 1655 Rocket 4.0 10:23:05 10° SSW 10:29:12 61° W 10:35:21 10° N
Cosmos 2228 Rocket 4.5 10:28:04 10° SSE 10:32:16 44° E 10:36:27 10° NNE
Cosmos 2278 Rocket 3.9 10:35:45 10° W 10:37:22 11° W 10:38:58 10° WSW
ARIANE 5 R/B 2.6 10:37:11 10° NNE 10:42:26 89° W 10:47:38 10° SSW
